Showing default

IRNSS 1E, 41241

Orbit data source: Space-Track

IRNSS 1E, 41241 is a payload satellite owned by ISRO (IN) in GEO that was launched on Wed, 20 Jan 2016 UTC via a PSLV-XL launch vehicle from the Sirharikota (SRI). Payload-class satellites include a variety of spacecraft equipped with specific instruments for various scientific and technological missions. These include communications satellites like Starlink; space stations such as the ISS; scientific satellites like the Hubble; Earth observation satellites from companies like Planet Labs, Umbra, and HawkEye 360; GPS; miniature CubeSats for education and research; and military/defense satellites.

Not visible in the next 10 days
Identifier
41241, 2016-003A
Orbit
GEO
Country
Flag of ININ / IND
Related business
Manufacturer
ISRO SAC/Banga
Mission
Partially operational Civil Navigation
Bus & Motor
I1K, ISRO LAM
Mass
1,425 kg wet, 598 kg dry
Launch date (UTC)
2016-01-20 (11 years ago)
Launch vehicle
PSLV-XL
Launch site
Sirharikota (SRI)
Object type
Payload
Rocket body
Debris
Shape & HBR
Box + 2 Pan, 5.0 m
Radar Cross Section
6.961 m², Large (>1 m²)

Expand to show TLE details & history
Last TLE update: 15 hours ago

TLE from 15 hours ago
0 IRNSS 1E
1 41241U 16003A   26246.90513730 -.00000299  00000-0  00000-0 0  9991
2 41241  33.4054  58.6104 0021361 177.5733 184.3576  1.00267484 38875
Epoch: 2026-09-03T21:43Z
TLE epoch observation values (Epoch: 2026-09-03T21:43:23.862Z)
Latitude
1.02616°
Longitude
111.28482°
Altitude
35,877.012 km
Speed
3.068 km/s
True Right ascension
04h 00m 41s
True Declination
1° 01' 30"
Sunlit
Object was in daylight at epoch
Visualization orbit readout
Latitude
Unknown
Longitude
Unknown
Altitude
Unknown
Speed
Unknown
Apparent Right ascension
Unknown
Apparent Declination
Unknown
Sunlit
N/A
Visualization observer readout
Local Sidereal Time
04:20:52
Azimuth
Unknown
Elevation
Unknown
Doppler factor
Unknown
Orbital elements
Apogee altitude
35,878.468 km
Perigee altitude
35,698.324 km
Semi-major axis
42,166.533 km
Eccentricity
0.00214
Inclination
33.4054°
RAAN
58.6104°
Arg. of periapsis
177.5733°
True anomaly
184.33905°
Mean anomaly
184.3576°
Eccentric anomaly
184.34832°
Mean motion
0.25066 °/min
Orbital period
1,436.19 mins
BSTAR
0
Loading maneuver chart data...
Computing Atmospheric mass density...
Loading historical data...
Loading historical data...
Loading historical data...
Loading historical data...
Loading historical data...
Loading historical data...
Loading historical data...
Other satellites on launch #3 in the year 2016 (2016-01-20 UTC)

Documentation

Showing up to 5 results
|